Location: ????
(30.2663°N, 31.2484°E)
Time: 18:10:59
(UTC+00:00)

CZ-2C R/B - Pass Details

Date: 02 April 2023
Orbit: 784 x 869 km, 98.3° (Epoch: 04 June)

Event Time Altitude Azimuth Distance (km) Brightness Sun altitude
Exits shadow 01:43:10 54° 186° (S) 1,036 2.9 -26.0°
Maximum altitude 01:44:27 78° 258° (WSW) 884 2.6 -25.7°
Drops below altitude 10° 01:50:00 10° 345° (NNW) 2,485 5.2 -24.6°
Sets 01:52:21 0° 346° (NNW) 3,412 6.0 -24.2°
